This is the latest recevied weather packets stored in our database for station/object 5B4APJ-13. If no packets are shown the sender has not sent any weather packets the latest 10 day(s).
| Time | Temp. | Humidity | Pressure | Rain* | Wind** | Luminosity | Snow |
|---|---|---|---|---|---|---|---|
| 1777924923 | 10.56° C | 73% | 1011.6 hPa | 0 mm | 1.34 m/s, 248° | 0 W/m² | - |
| 1777924623 | 10.56° C | 72% | 1011.5 hPa | 0 mm | 0.89 m/s, 257° | 0 W/m² | - |
| 1777924322 | 10.56° C | 70% | 1011.5 hPa | 0 mm | 1.34 m/s, 252° | 0 W/m² | - |
| 1777924023 | 11.11° C | 69% | 1011.6 hPa | 0 mm | 1.79 m/s, 257° | 0 W/m² | - |
| 1777923723 | 10.56° C | 70% | 1011.6 hPa | 0 mm | 1.34 m/s, 265° | 0 W/m² | - |
| 1777923423 | 10.56° C | 73% | 1011.5 hPa | 0 mm | 1.34 m/s, 271° | 0 W/m² | - |
| 1777923122 | 10° C | 71% | 1011.3 hPa | 0 mm | 1.34 m/s, 246° | 0 W/m² | - |
| 1777922823 | 10° C | 73% | 1011.4 hPa | 0 mm | 1.34 m/s, 246° | 0 W/m² | - |
| 1777922523 | 10.56° C | 72% | 1011.2 hPa | 0 mm | 1.34 m/s, 250° | 0 W/m² | - |
| 1777922223 | 10.56° C | 70% | 1011.3 hPa | 0 mm | 0.89 m/s, 252° | 0 W/m² | - |
| 1777921923 | 11.11° C | 70% | 1011.2 hPa | 0 mm | 0.89 m/s, 256° | 0 W/m² | - |
| 1777921623 | 11.67° C | 67% | 1011.1 hPa | 0 mm | 0.45 m/s, 253° | 0 W/m² | - |
| 1777921322 | 11.11° C | 65% | 1011.3 hPa | 0 mm | 0.89 m/s, 240° | 0 W/m² | - |
| 1777921023 | 11.11° C | 67% | 1011.2 hPa | 0 mm | 0.45 m/s, 240° | 0 W/m² | - |
| 1777920723 | 11.11° C | 66% | 1011.2 hPa | 0 mm | 0.45 m/s, 220° | 0 W/m² | - |
| 1777920423 | 11.67° C | 66% | 1011.3 hPa | 0 mm | 0.45 m/s, 220° | 0 W/m² | - |
| 1777920123 | 11.67° C | 66% | 1011.4 hPa | 0 mm | 0.45 m/s, 216° | 0 W/m² | - |
| 1777919823 | 11.11° C | 66% | 1011.3 hPa | 0 mm | 0.45 m/s, 223° | 0 W/m² | - |
| 1777919523 | 11.11° C | 68% | 1011.3 hPa | 0 mm | 0.89 m/s, 231° | 0 W/m² | - |
| 1777919223 | 11.11° C | 69% | 1011.1 hPa | 0 mm | 0.45 m/s, 229° | 0 W/m² | - |
| 1777918923 | 11.11° C | 70% | 1011.3 hPa | 0 mm | 0 m/s | 0 W/m² | - |
| 1777918623 | 11.11° C | 70% | 1011.2 hPa | 0 mm | 0.45 m/s, 242° | 0 W/m² | - |
| 1777918323 | 11.11° C | 69% | 1011.3 hPa | 0 mm | 0 m/s | 0 W/m² | - |
| 1777918023 | 11.11° C | 70% | 1011.2 hPa | 0 mm | 0.45 m/s, 242° | 0 W/m² | - |
| 1777917722 | 11.11° C | 70% | 1010.9 hPa | 0 mm | 0.45 m/s, 244° | 0 W/m² | - |
* Rain latest hour (hover to see other rain measurements)
** Current wind speed in m/s (hover to see current wind gust speed)